Location: Tucson
(32.2217°N, 110.9265°W)
Time: 07:46:25
(UTC-07:00)

Tiros 1 - Pass Details

Date: 01 November 2021
Orbit: 629 x 664 km, 48.4° (Epoch: 26 November)

Event Time Altitude Azimuth Distance (km) Brightness Sun altitude
Rises 08:28:20 0° 278° (W) 2,988 10.0 19.7°
Reaches altitude 10° 08:31:26 10° 299° (WNW) 2,076 9.2 20.3°
Maximum altitude 08:34:36 17° 340° (NNW) 1,644 8.9 20.8°
Drops below altitude 10° 08:37:46 10° 22° (NNE) 2,071 9.7 21.4°
Sets 08:40:51 0° 42° (NE) 2,979 10.7 21.9°
